Daviess Cnty AP, Washington,, IN

3:22 PM EST on November 13, 2019 (GMT -0500)
Daviess County

Weather History for KDCY - September, 2019

Change the Weather History Date:

Sunday, September 29, 2019

  Actual Average (KLWV) Record (KLWV)
Temperature  
Mean Temperature 78 °F -  
Max Temperature 91 °F 74 °F 94 °F (2019)
Min Temperature 65 °F 47 °F 41 °F (1992)
Cooling Degree Days 13    
Growing Degree Days 28 (Base 50)    
Moisture  
Dew Point 67 °F    
Average Humidity 74    
Maximum Humidity 100    
Minimum Humidity 42    
Precipitation  
Precipitation 0.00 in - - ()
Sea Level Pressure  
Sea Level Pressure 30.12 in    
Wind  
Wind Speed 4 mph (SSW)    
Max Wind Speed 15 mph    
Max Gust Speed 20 mph    
Visibility 10 miles    
Events      
Averages and records for this station are not official NWS values.
T = Trace of Precipitation, MM = Missing Value Source: NWS Daily Summary

Daily Weather History Graph

Daily Weather History Graph

Search for Another Location

Airport or City:

Astronomy

Sep. 29, 2019 Rise Set
Actual Time 7:42 AM EDT 7:34 PM EDT
Civil Twilight 7:15 AM EDT 8:01 PM EDT
Nautical Twilight 6:45 AM EDT 8:32 PM EDT
Astronomical Twilight 6:13 AM EDT 9:03 PM EDT
Moon 8:32 AM EDT (9/29) 8:35 PM EDT (9/29)
Length of Visible Light 12h 45m
Length of Day
11h 52m
New Moon, 1% of the Moon is Illuminated
Sep 29
New Moon
Oct 5
First Quarter
Oct 13
Full
Oct 21
Last Quarter
Oct 27
New

Hourly Weather History & Observations

Time (EDT) Temp. Heat Index Dew Point Humidity Pressure Visibility Wind Dir Wind Speed Gust Speed Precip Events Conditions
12:15 AM 67.1 °F - 66.9 °F 99% 30.12 in 10.0 mi Calm Calm - N/A   Clear
12:35 AM 66.2 °F - 66.2 °F 100% 30.13 in 10.0 mi Calm Calm - N/A   Clear
12:55 AM 66.2 °F - 65.8 °F 99% 30.12 in 10.0 mi Calm Calm - N/A   Clear
1:15 AM 66.0 °F - 65.7 °F 99% 30.12 in 10.0 mi Calm Calm - N/A   Clear
1:35 AM 66.4 °F - 66.2 °F 99% 30.12 in 10.0 mi ENE 4.6 mph - N/A   Clear
1:55 AM 67.6 °F - 67.5 °F 99% 30.12 in 10.0 mi Calm Calm - N/A   Clear
2:15 AM 66.9 °F - 66.7 °F 99% 30.12 in 10.0 mi Calm Calm - N/A   Clear
2:35 AM 65.7 °F - 65.5 °F 99% 30.12 in 10.0 mi Calm Calm - N/A   Clear
2:55 AM 66.9 °F - 66.7 °F 99% 30.12 in 10.0 mi SSE 3.5 mph - N/A   Clear
3:15 AM 68.9 °F - 68.5 °F 99% 30.12 in 10.0 mi Calm Calm - N/A   Clear
3:35 AM 68.2 °F - 67.8 °F 99% 30.12 in 10.0 mi Calm Calm - N/A   Clear
3:50 AM 67.8 °F - 67.5 °F 99% 30.12 in 10.0 mi Calm Calm - N/A   Clear
4:15 AM 67.5 °F - 67.3 °F 99% 30.11 in 10.0 mi Calm Calm - N/A   Clear
4:35 AM 68.2 °F - 68.0 °F 99% 30.11 in 10.0 mi Calm Calm - N/A   Scattered Clouds
4:55 AM 68.7 °F - 68.4 °F 99% 30.12 in 10.0 mi Calm Calm - N/A   Scattered Clouds
5:15 AM 68.5 °F - 68.4 °F 99% 30.12 in 10.0 mi Calm Calm - N/A   Clear
5:35 AM 68.4 °F - 68.2 °F 99% 30.12 in 10.0 mi SE 3.5 mph - N/A   Clear
5:55 AM 68.5 °F - 68.4 °F 99% 30.12 in 10.0 mi SE 3.5 mph - N/A   Clear
6:15 AM 68.4 °F - 68.0 °F 99% 30.12 in 10.0 mi Calm Calm - N/A   Clear
6:35 AM 68.2 °F - 68.0 °F 99% 30.12 in 10.0 mi Calm Calm - N/A   Clear
6:55 AM 68.0 °F - 67.6 °F 99% 30.14 in 10.0 mi SSE 3.5 mph - N/A   Clear
7:15 AM 68.0 °F - 67.6 °F 99% 30.14 in 10.0 mi SSE 3.5 mph - N/A   Clear
7:35 AM 68.4 °F - 68.0 °F 99% 30.15 in 10.0 mi SSE 3.5 mph - N/A   Clear
7:55 AM 68.0 °F - 67.8 °F 99% 30.15 in 10.0 mi SE 3.5 mph - N/A   Clear
8:15 AM 68.9 °F - 68.5 °F 99% 30.15 in 10.0 mi SSE 4.6 mph - N/A   Clear
8:35 AM 70.2 °F - 68.4 °F 94% 30.15 in 10.0 mi SSE 5.8 mph - N/A   Clear
8:55 AM 70.9 °F - 68.5 °F 92% 30.15 in 10.0 mi SSE 6.9 mph - N/A   Clear
9:15 AM 72.7 °F - 66.0 °F 80% 30.15 in 10.0 mi SSE 8.1 mph - N/A   Clear
9:35 AM 76.3 °F - 65.8 °F 70% 30.16 in 10.0 mi South 11.5 mph - N/A   Scattered Clouds
9:55 AM 77.2 °F - 65.5 °F 67% 30.16 in 10.0 mi South 10.4 mph - N/A   Mostly Cloudy
10:15 AM 78.3 °F - 66.0 °F 66% 30.16 in 10.0 mi South 9.2 mph - N/A   Mostly Cloudy
10:35 AM 79.5 °F - 66.4 °F 64% 30.16 in 10.0 mi South 9.2 mph - N/A   Mostly Cloudy
10:55 AM 81.0 °F 83.3 °F 66.9 °F 62% 30.17 in 10.0 mi SSW 10.4 mph - N/A   Scattered Clouds
11:15 AM 81.9 °F 84.4 °F 67.1 °F 61% 30.17 in 10.0 mi SSW 8.1 mph 16.1 mph N/A   Mostly Cloudy
11:35 AM 82.9 °F 85.8 °F 67.8 °F 60% 30.16 in 10.0 mi South 6.9 mph - N/A   Mostly Cloudy
11:55 AM 85.6 °F 89.1 °F 68.2 °F 56% 30.16 in 10.0 mi SSW 9.2 mph - N/A   Scattered Clouds
12:15 PM 86.0 °F 89.4 °F 68.4 °F 55% 30.16 in 10.0 mi SW 8.1 mph - N/A   Scattered Clouds
12:35 PM 87.4 °F 90.8 °F 67.8 °F 52% 30.15 in 10.0 mi SW 10.4 mph 18.4 mph N/A   Mostly Cloudy
12:55 PM 88.3 °F 91.6 °F 67.6 °F 50% 30.15 in 10.0 mi SSW 15.0 mph 19.6 mph N/A   Scattered Clouds
1:15 PM 89.1 °F 92.1 °F 67.3 °F 48% 30.14 in 10.0 mi SW 12.7 mph - N/A   Clear
1:35 PM 88.5 °F 91.6 °F 67.3 °F 49% 30.14 in 10.0 mi SW 10.4 mph 16.1 mph N/A   Scattered Clouds
2:15 PM 90.1 °F 93.1 °F 66.9 °F 46% 30.12 in 10.0 mi SW 9.2 mph 18.4 mph N/A   Mostly Cloudy
2:35 PM 90.5 °F 93.3 °F 66.4 °F 45% 30.12 in 10.0 mi SSW 9.2 mph 16.1 mph N/A   Scattered Clouds
2:55 PM 91.6 °F 94.3 °F 66.0 °F 43% 30.11 in 10.0 mi SW 11.5 mph 16.1 mph N/A   Clear
3:20 PM 89.8 °F 91.8 °F 64.9 °F 44% 30.10 in 10.0 mi SW 10.4 mph - N/A   Mostly Cloudy
3:35 PM 89.2 °F 91.3 °F 65.5 °F 45% 30.10 in 10.0 mi SSW 6.9 mph - N/A   Overcast
3:55 PM 90.0 °F 92.0 °F 65.5 °F 44% 30.10 in 10.0 mi SSW 8.1 mph - N/A   Overcast
4:15 PM 90.3 °F 92.2 °F 65.3 °F 43% 30.08 in 10.0 mi South 12.7 mph - N/A   Mostly Cloudy
4:35 PM 90.9 °F 92.7 °F 65.1 °F 42% 30.08 in 10.0 mi SSW 10.4 mph - N/A   Scattered Clouds
4:55 PM 89.2 °F 90.9 °F 64.8 °F 44% 30.08 in 10.0 mi SSW 8.1 mph - N/A   Scattered Clouds
5:15 PM 90.0 °F 91.7 °F 64.9 °F 43% 30.08 in 10.0 mi SSW 11.5 mph - N/A   Clear
5:35 PM 90.5 °F 92.5 °F 64.9 °F 43% 30.08 in 10.0 mi SSW 6.9 mph - N/A   Scattered Clouds
5:55 PM 90.5 °F 92.5 °F 64.9 °F 43% 30.08 in 10.0 mi South 9.2 mph - N/A   Scattered Clouds
6:15 PM 89.2 °F 90.2 °F 63.3 °F 42% 30.08 in 10.0 mi WSW 9.2 mph 17.3 mph N/A   Clear
6:35 PM 88.2 °F 89.6 °F 64.2 °F 45% 30.09 in 10.0 mi WSW 6.9 mph - N/A   Clear
6:50 PM 87.1 °F 88.9 °F 64.9 °F 48% 30.09 in 10.0 mi SW 3.5 mph - N/A   Clear
7:10 PM 85.5 °F 87.9 °F 66.4 °F 53% 30.09 in 10.0 mi SSW 3.5 mph - N/A   Clear
7:30 PM 79.7 °F - 67.5 °F 66% 30.08 in 10.0 mi SSW 3.5 mph - N/A   Clear
7:55 PM 76.3 °F - 66.7 °F 72% 30.10 in 10.0 mi South 3.5 mph - N/A   Clear
8:20 PM 75.2 °F - 66.6 °F 74% 30.10 in 10.0 mi Calm Calm - N/A   Clear
8:35 PM 74.8 °F - 66.4 °F 75% 30.10 in 10.0 mi Calm Calm - N/A   Clear
9:00 PM 72.7 °F - 66.6 °F 81% 30.11 in 10.0 mi South 4.6 mph - N/A   Clear
9:10 PM 72.7 °F - 66.2 °F 80% 30.11 in 10.0 mi South 4.6 mph - N/A   Clear
9:35 PM 71.8 °F - 65.8 °F 81% 30.12 in 10.0 mi South 4.6 mph - N/A   Clear
9:55 PM 72.9 °F - 65.5 °F 78% 30.12 in 10.0 mi SSW 3.5 mph - N/A   Clear
10:35 PM 73.0 °F - 65.5 °F 77% 30.12 in 10.0 mi SSW 3.5 mph - N/A   Clear
10:55 PM 72.9 °F - 65.3 °F 77% 30.12 in 10.0 mi SSW 5.8 mph - N/A   Clear
11:15 PM 74.3 °F - 65.3 °F 73% 30.12 in 10.0 mi SSW 6.9 mph - N/A   Clear
11:35 PM 75.4 °F - 64.9 °F 70% 30.11 in 10.0 mi SSW 5.8 mph - N/A   Clear
11:50 PM 77.7 °F - 64.8 °F 64% 30.11 in 10.0 mi SW 5.8 mph - N/A   Clear